Вернуться в каталог

NOAA 8 DEB

АктивенPO
NORAD 38840·DEBRIS·🇺🇸 United States

Запущен Mar 28, 1983 с Vandenberg Space Force Base

Loading…

Ближайшие Пролёты (ближайшие 24 часа)

TLE

СвежийSource: Space-Track

Эпоха: Sep 13, 2026, 10:08 UTC

1 38840U 83022M   26256.42231632  .00021010  00000-0  16211-2 0  9999
2 38840  98.3343 321.9991 0007501 198.9934 222.9286 15.01586270790041

Отслеживайте NOAA 8 DEB в реальном времени с AllMySat

Download on the App Store